Weather History for KANJ - July, 2014

Change the Weather History Date:

Thursday, July 31, 2014

  Actual Average Record
Temperature  
Mean Temperature 63 °F 66 °F  
Max Temperature 74 °F 76 °F 97 °F (1975)
Min Temperature 51 °F 56 °F 40 °F (1918)
Degree Days  
Heating Degree Days 2 2  
Month to date heating degree days 111 72  
Since 1 June heating degree days 220 249  
Since 1 July heating degree days 111 69  
Cooling Degree Days 0 3  
Month to date cooling degree days 21 78  
Year to date cooling degree days 60 113  
Since 1 June cooling degree days 58 108  
Growing Degree Days 13 (Base 50)    
Moisture  
Dew Point 51 °F    
Average Humidity 67    
Maximum Humidity 93    
Minimum Humidity 41    
Precipitation  
Precipitation T in 0.10 in 1.75 in (1983)
Month to date precipitation 1.48 2.86  
Year to date precipitation 16.44 16.00  
Sea Level Pressure  
Sea Level Pressure 29.93 in    
Wind  
Wind Speed 4 mph (WNW)    
Max Wind Speed 13 mph    
Max Gust Speed 17 mph    
Visibility 10 miles    
Events      
T = Trace of Precipitation, MM = Missing Value Source: NWS Daily Summary

Daily Weather History Graph

Daily Weather History Graph

Search for Another Location

Airport or City:

Trip Planner

Search our weather history database for the weather conditions in past years. The results will help you decide how hot, cold, wet, or windy it might be!

Date:

Astronomy

Jul. 31, 2014 Rise Set
Actual Time 6:17 AM EDT 9:09 PM EDT
Civil Twilight 5:42 AM EDT 9:44 PM EDT
Nautical Twilight 4:57 AM EDT 10:29 PM EDT
Astronomical Twilight 4:03 AM EDT 11:22 PM EDT
Moon 11:02 AM EDT (7/31) 11:01 PM EDT (7/31)
Length of Visible Light 16h 02m
Length of Day
14h 52m
Waxing Crescent, 19% of the Moon is Illuminated
Jul 31
Waxing Crescent
Aug 3
First Quarter
Aug 10
Full
Aug 17
Last Quarter
Aug 25
New

Hourly Weather History & Observations

Time (EDT) Temp. Dew Point Humidity Pressure Visibility Wind Dir Wind Speed Gust Speed Precip Events Conditions
12:55 AM 53.1 °F 50.0 °F 89% 29.95 in 10.0 mi Calm Calm - N/A   Mostly Cloudy
1:55 AM 53.1 °F 50.0 °F 89% 29.94 in 10.0 mi Calm Calm - N/A   Mostly Cloudy
2:55 AM 54.0 °F 51.1 °F 90% 29.93 in 10.0 mi Calm Calm - N/A   Overcast
3:55 AM 54.0 °F 52.0 °F 93% 29.93 in 10.0 mi Calm Calm - N/A   Mostly Cloudy
4:55 AM 53.1 °F 51.1 °F 93% 29.92 in 10.0 mi Calm Calm - N/A   Scattered Clouds
5:55 AM 53.1 °F 51.1 °F 93% 29.92 in 10.0 mi Calm Calm - 0.00 in   Overcast
6:55 AM 54.0 °F 51.1 °F 90% 29.92 in 10.0 mi Calm Calm - N/A   Overcast
7:55 AM 55.0 °F 53.1 °F 93% 29.92 in 10.0 mi Calm Calm - N/A   Overcast
8:55 AM 55.9 °F 53.1 °F 90% 29.91 in 10.0 mi South 3.5 mph - N/A   Overcast
9:55 AM 60.1 °F 54.0 °F 80% 29.91 in 10.0 mi West 3.5 mph - N/A   Overcast
10:55 AM 63.0 °F 52.0 °F 67% 29.91 in 10.0 mi West 5.8 mph - N/A   Overcast
11:55 AM 66.0 °F 54.0 °F 65% 29.91 in 10.0 mi West 4.6 mph - N/A   Overcast
12:55 PM 69.1 °F 54.0 °F 58% 29.90 in 10.0 mi West 8.1 mph - N/A   Partly Cloudy
1:55 PM 71.1 °F 54.0 °F 55% 29.90 in 10.0 mi WNW 11.5 mph - N/A   Clear
2:55 PM 73.0 °F 53.1 °F 49% 29.90 in 10.0 mi WNW 9.2 mph - N/A   Clear
3:55 PM 71.1 °F 46.9 °F 42% 29.91 in 10.0 mi WNW 10.4 mph - N/A   Mostly Cloudy
4:55 PM 69.1 °F 50.0 °F 51% 29.93 in 10.0 mi NW 6.9 mph - N/A   Overcast
5:55 PM 68.0 °F 53.1 °F 59% 29.94 in 10.0 mi West 6.9 mph - N/A   Partly Cloudy
6:55 PM 66.0 °F 52.0 °F 60% 29.95 in 10.0 mi NW 9.2 mph - N/A   Clear
7:55 PM 64.0 °F 51.1 °F 63% 29.96 in 10.0 mi WNW 4.6 mph - N/A   Clear
8:55 PM 61.0 °F 48.9 °F 64% 29.96 in 10.0 mi WNW 4.6 mph - N/A   Scattered Clouds
9:55 PM 57.9 °F 50.0 °F 75% 29.98 in 10.0 mi NW 3.5 mph - N/A   Partly Cloudy
10:55 PM 54.0 °F 50.0 °F 86% 29.97 in 10.0 mi Calm Calm - N/A   Clear
11:55 PM 53.1 °F 48.9 °F 86% 29.98 in 10.0 mi Calm Calm - N/A   Clear